<?xml version="1.0" encoding="UTF-8" standalone="no" ?>
<gpx xmlns="http://www.topografix.com/GPX/1/1" xmlns:xsi="http://www.w3.org/2001/XMLSchema-instance" xsi:schemaLocation="http://www.topografix.com/GPX/1/1 http://www.topografix.com/GPX/1/1/gpx.xsd" version="1.1" creator="VisuGPX - https://www.visugpx.com">
  <metadata>
    <name>Parcours VTT FFC Saillans</name>
  </metadata>
  <trk>
    <name><![CDATA[VTT N°1 vert - col des Beaux - 6 km - Déniv 170 m]]></name>
    <extensions>
      <line xmlns="http://www.topografix.com/GPX/gpx_style/0/2">
        <color>36ed12</color>
        <width>4</width>
      </line>
    </extensions>
    <trkseg>
      <trkpt lat="44.69759" lon="5.19737">
        <ele>271</ele>
        <time>2022-12-01T10:44:04Z</time>
      </trkpt>
      <trkpt lat="44.69763" lon="5.19713">
        <ele>271</ele>
        <time>2022-12-01T10:44:04Z</time>
      </trkpt>
      <trkpt lat="44.69762" lon="5.19702">
        <ele>271</ele>
        <time>2022-12-01T10:44:04Z</time>
      </trkpt>
      <trkpt lat="44.69745" lon="5.19644">
        <ele>265</ele>
        <time>2022-12-01T10:44:04Z</time>
      </trkpt>
      <trkpt lat="44.6974" lon="5.19634">
        <ele>264</ele>
        <time>2022-12-01T10:44:04Z</time>
      </trkpt>
      <trkpt lat="44.69741" lon="5.19623">
        <ele>264</ele>
        <time>2022-12-01T10:44:04Z</time>
      </trkpt>
      <trkpt lat="44.69734" lon="5.19613">
        <ele>264</ele>
        <time>2022-12-01T10:44:04Z</time>
      </trkpt>
      <trkpt lat="44.69727" lon="5.19607">
        <ele>264</ele>
        <time>2022-12-01T10:44:04Z</time>
      </trkpt>
      <trkpt lat="44.6971" lon="5.196">
        <ele>263</ele>
        <time>2022-12-01T10:44:04Z</time>
      </trkpt>
      <trkpt lat="44.69664" lon="5.1955">
        <ele>264</ele>
        <time>2022-12-01T10:44:04Z</time>
      </trkpt>
      <trkpt lat="44.69673" lon="5.19453">
        <ele>265</ele>
        <time>2022-12-01T10:44:04Z</time>
      </trkpt>
      <trkpt lat="44.69678" lon="5.19445">
        <ele>265</ele>
        <time>2022-12-01T10:44:04Z</time>
      </trkpt>
      <trkpt lat="44.69805" lon="5.19388">
        <ele>274</ele>
        <time>2022-12-01T10:44:04Z</time>
      </trkpt>
      <trkpt lat="44.69859" lon="5.19333">
        <ele>282</ele>
        <time>2022-12-01T10:44:04Z</time>
      </trkpt>
      <trkpt lat="44.69891" lon="5.19325">
        <ele>287</ele>
        <time>2022-12-01T10:44:04Z</time>
      </trkpt>
      <trkpt lat="44.69914" lon="5.19322">
        <ele>291</ele>
        <time>2022-12-01T10:44:04Z</time>
      </trkpt>
      <trkpt lat="44.69928" lon="5.19314">
        <ele>294</ele>
        <time>2022-12-01T10:44:04Z</time>
      </trkpt>
      <trkpt lat="44.69935" lon="5.19307">
        <ele>296</ele>
        <time>2022-12-01T10:44:04Z</time>
      </trkpt>
      <trkpt lat="44.69933" lon="5.19297">
        <ele>297</ele>
        <time>2022-12-01T10:44:04Z</time>
      </trkpt>
      <trkpt lat="44.69926" lon="5.19289">
        <ele>298</ele>
        <time>2022-12-01T10:44:04Z</time>
      </trkpt>
      <trkpt lat="44.69919" lon="5.19284">
        <ele>299</ele>
        <time>2022-12-01T10:44:04Z</time>
      </trkpt>
      <trkpt lat="44.69908" lon="5.1927">
        <ele>302</ele>
        <time>2022-12-01T10:44:04Z</time>
      </trkpt>
      <trkpt lat="44.6991" lon="5.1926">
        <ele>303</ele>
        <time>2022-12-01T10:44:04Z</time>
      </trkpt>
      <trkpt lat="44.69917" lon="5.19262">
        <ele>304</ele>
        <time>2022-12-01T10:44:04Z</time>
      </trkpt>
      <trkpt lat="44.69922" lon="5.19269">
        <ele>305</ele>
        <time>2022-12-01T10:44:04Z</time>
      </trkpt>
      <trkpt lat="44.6993" lon="5.19271">
        <ele>305</ele>
        <time>2022-12-01T10:44:04Z</time>
      </trkpt>
      <trkpt lat="44.69962" lon="5.1926">
        <ele>309</ele>
        <time>2022-12-01T10:44:04Z</time>
      </trkpt>
      <trkpt lat="44.69977" lon="5.19262">
        <ele>311</ele>
        <time>2022-12-01T10:44:04Z</time>
      </trkpt>
      <trkpt lat="44.69984" lon="5.19265">
        <ele>311</ele>
        <time>2022-12-01T10:44:04Z</time>
      </trkpt>
      <trkpt lat="44.69995" lon="5.19282">
        <ele>314</ele>
        <time>2022-12-01T10:44:04Z</time>
      </trkpt>
      <trkpt lat="44.70004" lon="5.19284">
        <ele>314</ele>
        <time>2022-12-01T10:44:04Z</time>
      </trkpt>
      <trkpt lat="44.70012" lon="5.19281">
        <ele>315</ele>
        <time>2022-12-01T10:44:04Z</time>
      </trkpt>
      <trkpt lat="44.7002" lon="5.19276">
        <ele>316</ele>
        <time>2022-12-01T10:44:04Z</time>
      </trkpt>
      <trkpt lat="44.70092" lon="5.19248">
        <ele>321</ele>
        <time>2022-12-01T10:44:04Z</time>
      </trkpt>
      <trkpt lat="44.70225" lon="5.19161">
        <ele>335</ele>
        <time>2022-12-01T10:44:04Z</time>
      </trkpt>
      <trkpt lat="44.70231" lon="5.19155">
        <ele>336</ele>
        <time>2022-12-01T10:44:04Z</time>
      </trkpt>
      <trkpt lat="44.70247" lon="5.19146">
        <ele>338</ele>
        <time>2022-12-01T10:44:05Z</time>
      </trkpt>
      <trkpt lat="44.70286" lon="5.19134">
        <ele>341</ele>
        <time>2022-12-01T10:44:05Z</time>
      </trkpt>
      <trkpt lat="44.70299" lon="5.19125">
        <ele>342</ele>
        <time>2022-12-01T10:44:05Z</time>
      </trkpt>
      <trkpt lat="44.70424" lon="5.18995">
        <ele>358</ele>
        <time>2022-12-01T10:44:05Z</time>
      </trkpt>
      <trkpt lat="44.70453" lon="5.18977">
        <ele>361</ele>
        <time>2022-12-01T10:44:05Z</time>
      </trkpt>
      <trkpt lat="44.70546" lon="5.18873">
        <ele>370</ele>
        <time>2022-12-01T10:44:05Z</time>
      </trkpt>
      <trkpt lat="44.7069" lon="5.18783">
        <ele>383</ele>
        <time>2022-12-01T10:44:05Z</time>
      </trkpt>
      <trkpt lat="44.707" lon="5.1878">
        <ele>384</ele>
        <time>2022-12-01T10:44:05Z</time>
      </trkpt>
      <trkpt lat="44.70812" lon="5.18793">
        <ele>395</ele>
        <time>2022-12-01T10:44:05Z</time>
      </trkpt>
      <trkpt lat="44.70841" lon="5.18812">
        <ele>398</ele>
        <time>2022-12-01T10:44:05Z</time>
      </trkpt>
      <trkpt lat="44.70857" lon="5.18816">
        <ele>399</ele>
        <time>2022-12-01T10:44:05Z</time>
      </trkpt>
      <trkpt lat="44.70866" lon="5.18813">
        <ele>399</ele>
        <time>2022-12-01T10:44:05Z</time>
      </trkpt>
      <trkpt lat="44.70969" lon="5.18715">
        <ele>398</ele>
        <time>2022-12-01T10:44:05Z</time>
      </trkpt>
      <trkpt lat="44.71063" lon="5.1861">
        <ele>396</ele>
        <time>2022-12-01T10:44:05Z</time>
      </trkpt>
      <trkpt lat="44.7107" lon="5.18604">
        <ele>396</ele>
        <time>2022-12-01T10:44:05Z</time>
      </trkpt>
      <trkpt lat="44.71078" lon="5.18602">
        <ele>397</ele>
        <time>2022-12-01T10:44:05Z</time>
      </trkpt>
      <trkpt lat="44.71083" lon="5.18614">
        <ele>397</ele>
        <time>2022-12-01T10:44:05Z</time>
      </trkpt>
      <trkpt lat="44.71088" lon="5.18621">
        <ele>397</ele>
        <time>2022-12-01T10:44:05Z</time>
      </trkpt>
      <trkpt lat="44.7112" lon="5.18635">
        <ele>397</ele>
        <time>2022-12-01T10:44:05Z</time>
      </trkpt>
      <trkpt lat="44.71145" lon="5.18671">
        <ele>398</ele>
        <time>2022-12-01T10:44:05Z</time>
      </trkpt>
      <trkpt lat="44.71149" lon="5.18685">
        <ele>398</ele>
        <time>2022-12-01T10:44:05Z</time>
      </trkpt>
      <trkpt lat="44.71168" lon="5.1871">
        <ele>399</ele>
        <time>2022-12-01T10:44:05Z</time>
      </trkpt>
      <trkpt lat="44.71176" lon="5.18712">
        <ele>398</ele>
        <time>2022-12-01T10:44:05Z</time>
      </trkpt>
      <trkpt lat="44.712" lon="5.18691">
        <ele>400</ele>
        <time>2022-12-01T10:44:05Z</time>
      </trkpt>
      <trkpt lat="44.71211" lon="5.18677">
        <ele>402</ele>
        <time>2022-12-01T10:44:05Z</time>
      </trkpt>
      <trkpt lat="44.71256" lon="5.18589">
        <ele>407</ele>
        <time>2022-12-01T10:44:05Z</time>
      </trkpt>
      <trkpt lat="44.71267" lon="5.18572">
        <ele>411</ele>
        <time>2022-12-01T10:44:05Z</time>
      </trkpt>
      <trkpt lat="44.71288" lon="5.18551">
        <ele>414</ele>
        <time>2022-12-01T10:44:05Z</time>
      </trkpt>
      <trkpt lat="44.71296" lon="5.1855">
        <ele>415</ele>
        <time>2022-12-01T10:44:05Z</time>
      </trkpt>
      <trkpt lat="44.71312" lon="5.18553">
        <ele>412</ele>
        <time>2022-12-01T10:44:05Z</time>
      </trkpt>
      <trkpt lat="44.71357" lon="5.18538">
        <ele>411</ele>
        <time>2022-12-01T10:44:05Z</time>
      </trkpt>
      <trkpt lat="44.71375" lon="5.1854">
        <ele>409</ele>
        <time>2022-12-01T10:44:05Z</time>
      </trkpt>
      <trkpt lat="44.71412" lon="5.18532">
        <ele>404</ele>
        <time>2022-12-01T10:44:05Z</time>
      </trkpt>
      <trkpt lat="44.71421" lon="5.18535">
        <ele>402</ele>
        <time>2022-12-01T10:44:05Z</time>
      </trkpt>
      <trkpt lat="44.71431" lon="5.18541">
        <ele>400</ele>
        <time>2022-12-01T10:44:05Z</time>
      </trkpt>
      <trkpt lat="44.71449" lon="5.18552">
        <ele>396</ele>
        <time>2022-12-01T10:44:05Z</time>
      </trkpt>
      <trkpt lat="44.71465" lon="5.18554">
        <ele>394</ele>
        <time>2022-12-01T10:44:05Z</time>
      </trkpt>
      <trkpt lat="44.71472" lon="5.1855">
        <ele>393</ele>
        <time>2022-12-01T10:44:05Z</time>
      </trkpt>
      <trkpt lat="44.71478" lon="5.18544">
        <ele>392</ele>
        <time>2022-12-01T10:44:05Z</time>
      </trkpt>
      <trkpt lat="44.71519" lon="5.18416">
        <ele>388</ele>
        <time>2022-12-01T10:44:05Z</time>
      </trkpt>
      <trkpt lat="44.71525" lon="5.18409">
        <ele>388</ele>
        <time>2022-12-01T10:44:05Z</time>
      </trkpt>
      <trkpt lat="44.7153" lon="5.18378">
        <ele>389</ele>
        <time>2022-12-01T10:44:05Z</time>
      </trkpt>
      <trkpt lat="44.71537" lon="5.18376">
        <ele>388</ele>
        <time>2022-12-01T10:44:05Z</time>
      </trkpt>
      <trkpt lat="44.71546" lon="5.18397">
        <ele>384</ele>
        <time>2022-12-01T10:44:05Z</time>
      </trkpt>
      <trkpt lat="44.71552" lon="5.18402">
        <ele>383</ele>
        <time>2022-12-01T10:44:05Z</time>
      </trkpt>
      <trkpt lat="44.7156" lon="5.18398">
        <ele>383</ele>
        <time>2022-12-01T10:44:05Z</time>
      </trkpt>
      <trkpt lat="44.7159" lon="5.18377">
        <ele>385</ele>
        <time>2022-12-01T10:44:05Z</time>
      </trkpt>
      <trkpt lat="44.71597" lon="5.18375">
        <ele>385</ele>
        <time>2022-12-01T10:44:05Z</time>
      </trkpt>
      <trkpt lat="44.71589" lon="5.18407">
        <ele>380</ele>
        <time>2022-12-01T10:44:05Z</time>
      </trkpt>
      <trkpt lat="44.71585" lon="5.18416">
        <ele>379</ele>
        <time>2022-12-01T10:44:05Z</time>
      </trkpt>
      <trkpt lat="44.71573" lon="5.18428">
        <ele>378</ele>
        <time>2022-12-01T10:44:05Z</time>
      </trkpt>
      <trkpt lat="44.71564" lon="5.18446">
        <ele>377</ele>
        <time>2022-12-01T10:44:05Z</time>
      </trkpt>
      <trkpt lat="44.71563" lon="5.18457">
        <ele>377</ele>
        <time>2022-12-01T10:44:05Z</time>
      </trkpt>
      <trkpt lat="44.71573" lon="5.1849">
        <ele>378</ele>
        <time>2022-12-01T10:44:05Z</time>
      </trkpt>
      <trkpt lat="44.71627" lon="5.18573">
        <ele>377</ele>
        <time>2022-12-01T10:44:05Z</time>
      </trkpt>
      <trkpt lat="44.71634" lon="5.18576">
        <ele>378</ele>
        <time>2022-12-01T10:44:05Z</time>
      </trkpt>
      <trkpt lat="44.71642" lon="5.18576">
        <ele>378</ele>
        <time>2022-12-01T10:44:05Z</time>
      </trkpt>
      <trkpt lat="44.71646" lon="5.18595">
        <ele>376</ele>
        <time>2022-12-01T10:44:05Z</time>
      </trkpt>
      <trkpt lat="44.71649" lon="5.18607">
        <ele>373</ele>
        <time>2022-12-01T10:44:05Z</time>
      </trkpt>
      <trkpt lat="44.71653" lon="5.18616">
        <ele>372</ele>
        <time>2022-12-01T10:44:05Z</time>
      </trkpt>
      <trkpt lat="44.71656" lon="5.18626">
        <ele>371</ele>
        <time>2022-12-01T10:44:05Z</time>
      </trkpt>
      <trkpt lat="44.7166" lon="5.18637">
        <ele>369</ele>
        <time>2022-12-01T10:44:05Z</time>
      </trkpt>
      <trkpt lat="44.71683" lon="5.18664">
        <ele>364</ele>
        <time>2022-12-01T10:44:05Z</time>
      </trkpt>
      <trkpt lat="44.71697" lon="5.18677">
        <ele>361</ele>
        <time>2022-12-01T10:44:05Z</time>
      </trkpt>
      <trkpt lat="44.71707" lon="5.18694">
        <ele>358</ele>
        <time>2022-12-01T10:44:05Z</time>
      </trkpt>
      <trkpt lat="44.71715" lon="5.18761">
        <ele>353</ele>
        <time>2022-12-01T10:44:05Z</time>
      </trkpt>
      <trkpt lat="44.71712" lon="5.18782">
        <ele>353</ele>
        <time>2022-12-01T10:44:05Z</time>
      </trkpt>
      <trkpt lat="44.71713" lon="5.18792">
        <ele>353</ele>
        <time>2022-12-01T10:44:05Z</time>
      </trkpt>
      <trkpt lat="44.71711" lon="5.18803">
        <ele>353</ele>
        <time>2022-12-01T10:44:05Z</time>
      </trkpt>
      <trkpt lat="44.71704" lon="5.18807">
        <ele>353</ele>
        <time>2022-12-01T10:44:05Z</time>
      </trkpt>
      <trkpt lat="44.71697" lon="5.18816">
        <ele>353</ele>
        <time>2022-12-01T10:44:05Z</time>
      </trkpt>
      <trkpt lat="44.71675" lon="5.18863">
        <ele>353</ele>
        <time>2022-12-01T10:44:05Z</time>
      </trkpt>
      <trkpt lat="44.7166" lon="5.1888">
        <ele>352</ele>
        <time>2022-12-01T10:44:05Z</time>
      </trkpt>
      <trkpt lat="44.71627" lon="5.18894">
        <ele>351</ele>
        <time>2022-12-01T10:44:05Z</time>
      </trkpt>
      <trkpt lat="44.716" lon="5.1892">
        <ele>349</ele>
        <time>2022-12-01T10:44:05Z</time>
      </trkpt>
      <trkpt lat="44.71576" lon="5.18956">
        <ele>349</ele>
        <time>2022-12-01T10:44:05Z</time>
      </trkpt>
      <trkpt lat="44.71571" lon="5.18969">
        <ele>349</ele>
        <time>2022-12-01T10:44:05Z</time>
      </trkpt>
      <trkpt lat="44.7156" lon="5.18985">
        <ele>349</ele>
        <time>2022-12-01T10:44:05Z</time>
      </trkpt>
      <trkpt lat="44.71553" lon="5.1899">
        <ele>349</ele>
        <time>2022-12-01T10:44:05Z</time>
      </trkpt>
      <trkpt lat="44.71529" lon="5.19019">
        <ele>349</ele>
        <time>2022-12-01T10:44:05Z</time>
      </trkpt>
      <trkpt lat="44.71524" lon="5.19029">
        <ele>349</ele>
        <time>2022-12-01T10:44:05Z</time>
      </trkpt>
      <trkpt lat="44.71522" lon="5.1904">
        <ele>349</ele>
        <time>2022-12-01T10:44:05Z</time>
      </trkpt>
      <trkpt lat="44.71521" lon="5.19051">
        <ele>349</ele>
        <time>2022-12-01T10:44:05Z</time>
      </trkpt>
      <trkpt lat="44.71516" lon="5.19063">
        <ele>349</ele>
        <time>2022-12-01T10:44:05Z</time>
      </trkpt>
      <trkpt lat="44.71509" lon="5.19067">
        <ele>348</ele>
        <time>2022-12-01T10:44:05Z</time>
      </trkpt>
      <trkpt lat="44.71507" lon="5.19078">
        <ele>348</ele>
        <time>2022-12-01T10:44:05Z</time>
      </trkpt>
      <trkpt lat="44.71485" lon="5.19082">
        <ele>346</ele>
        <time>2022-12-01T10:44:05Z</time>
      </trkpt>
      <trkpt lat="44.71478" lon="5.1908">
        <ele>345</ele>
        <time>2022-12-01T10:44:05Z</time>
      </trkpt>
      <trkpt lat="44.7141" lon="5.19103">
        <ele>339</ele>
        <time>2022-12-01T10:44:05Z</time>
      </trkpt>
      <trkpt lat="44.7137" lon="5.19126">
        <ele>338</ele>
        <time>2022-12-01T10:44:05Z</time>
      </trkpt>
      <trkpt lat="44.71365" lon="5.19134">
        <ele>339</ele>
        <time>2022-12-01T10:44:05Z</time>
      </trkpt>
      <trkpt lat="44.71358" lon="5.19155">
        <ele>340</ele>
        <time>2022-12-01T10:44:05Z</time>
      </trkpt>
      <trkpt lat="44.71343" lon="5.1916">
        <ele>340</ele>
        <time>2022-12-01T10:44:05Z</time>
      </trkpt>
      <trkpt lat="44.71329" lon="5.19149">
        <ele>338</ele>
        <time>2022-12-01T10:44:05Z</time>
      </trkpt>
      <trkpt lat="44.71221" lon="5.19178">
        <ele>333</ele>
        <time>2022-12-01T10:44:05Z</time>
      </trkpt>
      <trkpt lat="44.71163" lon="5.19211">
        <ele>333</ele>
        <time>2022-12-01T10:44:05Z</time>
      </trkpt>
      <trkpt lat="44.71147" lon="5.19206">
        <ele>332</ele>
        <time>2022-12-01T10:44:05Z</time>
      </trkpt>
      <trkpt lat="44.71122" lon="5.1921">
        <ele>330</ele>
        <time>2022-12-01T10:44:05Z</time>
      </trkpt>
      <trkpt lat="44.71091" lon="5.19229">
        <ele>329</ele>
        <time>2022-12-01T10:44:05Z</time>
      </trkpt>
      <trkpt lat="44.71052" lon="5.19268">
        <ele>328</ele>
        <time>2022-12-01T10:44:05Z</time>
      </trkpt>
      <trkpt lat="44.7102" lon="5.19327">
        <ele>327</ele>
        <time>2022-12-01T10:44:05Z</time>
      </trkpt>
      <trkpt lat="44.70991" lon="5.1943">
        <ele>326</ele>
        <time>2022-12-01T10:44:05Z</time>
      </trkpt>
      <trkpt lat="44.70945" lon="5.19541">
        <ele>323</ele>
        <time>2022-12-01T10:44:05Z</time>
      </trkpt>
      <trkpt lat="44.7094" lon="5.19564">
        <ele>321</ele>
        <time>2022-12-01T10:44:05Z</time>
      </trkpt>
      <trkpt lat="44.70942" lon="5.19577">
        <ele>320</ele>
        <time>2022-12-01T10:44:05Z</time>
      </trkpt>
      <trkpt lat="44.70953" lon="5.19595">
        <ele>319</ele>
        <time>2022-12-01T10:44:05Z</time>
      </trkpt>
      <trkpt lat="44.70957" lon="5.19608">
        <ele>318</ele>
        <time>2022-12-01T10:44:05Z</time>
      </trkpt>
      <trkpt lat="44.70953" lon="5.19621">
        <ele>319</ele>
        <time>2022-12-01T10:44:05Z</time>
      </trkpt>
      <trkpt lat="44.70945" lon="5.19629">
        <ele>319</ele>
        <time>2022-12-01T10:44:05Z</time>
      </trkpt>
      <trkpt lat="44.70938" lon="5.19633">
        <ele>320</ele>
        <time>2022-12-01T10:44:05Z</time>
      </trkpt>
      <trkpt lat="44.70923" lon="5.19647">
        <ele>321</ele>
        <time>2022-12-01T10:44:05Z</time>
      </trkpt>
      <trkpt lat="44.70907" lon="5.19674">
        <ele>323</ele>
        <time>2022-12-01T10:44:05Z</time>
      </trkpt>
      <trkpt lat="44.70893" lon="5.19687">
        <ele>325</ele>
        <time>2022-12-01T10:44:05Z</time>
      </trkpt>
      <trkpt lat="44.70886" lon="5.1969">
        <ele>326</ele>
        <time>2022-12-01T10:44:05Z</time>
      </trkpt>
      <trkpt lat="44.70871" lon="5.19692">
        <ele>327</ele>
        <time>2022-12-01T10:44:05Z</time>
      </trkpt>
      <trkpt lat="44.70815" lon="5.19718">
        <ele>332</ele>
        <time>2022-12-01T10:44:05Z</time>
      </trkpt>
      <trkpt lat="44.708" lon="5.19718">
        <ele>333</ele>
        <time>2022-12-01T10:44:05Z</time>
      </trkpt>
      <trkpt lat="44.70793" lon="5.1972">
        <ele>334</ele>
        <time>2022-12-01T10:44:05Z</time>
      </trkpt>
      <trkpt lat="44.70761" lon="5.19715">
        <ele>336</ele>
        <time>2022-12-01T10:44:05Z</time>
      </trkpt>
      <trkpt lat="44.70696" lon="5.19674">
        <ele>339</ele>
        <time>2022-12-01T10:44:05Z</time>
      </trkpt>
      <trkpt lat="44.70687" lon="5.19676">
        <ele>339</ele>
        <time>2022-12-01T10:44:05Z</time>
      </trkpt>
      <trkpt lat="44.70621" lon="5.19657">
        <ele>332</ele>
        <time>2022-12-01T10:44:05Z</time>
      </trkpt>
      <trkpt lat="44.70585" lon="5.19659">
        <ele>327</ele>
        <time>2022-12-01T10:44:05Z</time>
      </trkpt>
      <trkpt lat="44.70567" lon="5.19668">
        <ele>325</ele>
        <time>2022-12-01T10:44:05Z</time>
      </trkpt>
      <trkpt lat="44.70552" lon="5.19687">
        <ele>322</ele>
        <time>2022-12-01T10:44:05Z</time>
      </trkpt>
      <trkpt lat="44.70529" lon="5.1973">
        <ele>318</ele>
        <time>2022-12-01T10:44:05Z</time>
      </trkpt>
      <trkpt lat="44.70451" lon="5.19811">
        <ele>308</ele>
        <time>2022-12-01T10:44:05Z</time>
      </trkpt>
      <trkpt lat="44.70443" lon="5.19815">
        <ele>308</ele>
        <time>2022-12-01T10:44:05Z</time>
      </trkpt>
      <trkpt lat="44.70423" lon="5.19814">
        <ele>306</ele>
        <time>2022-12-01T10:44:05Z</time>
      </trkpt>
      <trkpt lat="44.70256" lon="5.19782">
        <ele>296</ele>
        <time>2022-12-01T10:44:05Z</time>
      </trkpt>
      <trkpt lat="44.70202" lon="5.19795">
        <ele>295</ele>
        <time>2022-12-01T10:44:05Z</time>
      </trkpt>
      <trkpt lat="44.70116" lon="5.19773">
        <ele>293</ele>
        <time>2022-12-01T10:44:05Z</time>
      </trkpt>
      <trkpt lat="44.70038" lon="5.19789">
        <ele>292</ele>
        <time>2022-12-01T10:44:05Z</time>
      </trkpt>
      <trkpt lat="44.69973" lon="5.19783">
        <ele>289</ele>
        <time>2022-12-01T10:44:05Z</time>
      </trkpt>
      <trkpt lat="44.69921" lon="5.19802">
        <ele>291</ele>
        <time>2022-12-01T10:44:05Z</time>
      </trkpt>
      <trkpt lat="44.69905" lon="5.19814">
        <ele>291</ele>
        <time>2022-12-01T10:44:05Z</time>
      </trkpt>
      <trkpt lat="44.69842" lon="5.19899">
        <ele>290</ele>
        <time>2022-12-01T10:44:05Z</time>
        <extensions>
          <visugpx:TrkExtension xmlns:visugpx="https://www.visugpx.com/editgpx/">
            <visugpx:node>1</visugpx:node>
            </visugpx:TrkExtension>
        </extensions>
      </trkpt>
    </trkseg>
  </trk>
</gpx>